Location: Detroit
(42.3310°N, 83.0460°W)
Time: 05:40:51
(UTC-05:00)

Vanguard 3 - Visible Passes

Search period start: 31 January 2023 00:00
Search period end: 10 February 2023 00:00
Orbit: 509 x 3252 km, 33.4° (Epoch: 30 January)

Date Brightness Start Highest point End Pass type
(mag) Time Alt. Az. Time Alt. Az. Time Alt. Az.
31 Jan 11.1 04:11:26 12° SSW 04:11:26 12° SSW 04:12:39 10° S visible
31 Jan 9.5 19:51:24 10° SW 20:01:12 47° SSE 20:07:09 34° ESE visible
31 Jan 9.8 22:02:09 10° WSW 22:11:36 53° SW 22:11:36 53° SW visible
01 Feb 11.1 00:14:54 10° W 00:16:03 13° W 00:16:03 13° W visible
01 Feb 9.7 18:37:47 10° SSW 18:45:35 33° SE 18:56:01 14° E visible
01 Feb 9.5 20:47:10 10° WSW 20:58:07 58° SSE 21:00:28 54° SE visible
01 Feb 10.3 22:58:50 10° W 23:04:55 34° WSW 23:04:55 34° WSW visible
02 Feb11.501:49:34SE01:49:34SE01:09:21Wvisible
02 Feb 9.4 19:32:49 10° SW 19:41:47 47° SSE 19:49:19 28° ESE visible
02 Feb 9.6 21:43:25 10° WSW 21:53:45 58° SSW 21:53:45 58° SSW visible
02 Feb 10.9 23:55:54 10° W 23:58:12 17° W 23:58:12 17° W visible
03 Feb 9.5 18:19:11 10° SSW 18:26:18 33° SSE 18:37:43 10° E visible
03 Feb 9.4 20:28:34 10° WSW 20:38:37 57° S 20:42:36 47° SE visible
03 Feb 10.1 22:40:02 10° W 22:47:02 39° WSW 22:47:02 39° WSW visible
04 Feb 9.3 19:14:17 10° SW 19:22:30 47° SSE 19:31:25 22° E visible
04 Feb 9.4 21:24:47 10° WSW 21:35:52 59° S 21:35:52 59° S visible
04 Feb 10.7 23:37:00 10° W 23:40:18 21° W 23:40:18 21° W visible
05 Feb 9.2 20:10:04 10° WSW 20:19:15 56° S 20:24:41 39° ESE visible
05 Feb 9.9 22:21:19 10° W 22:29:08 43° SW 22:29:08 43° SW visible
06 Feb 9.1 18:55:50 10° SW 19:03:18 47° SSE 19:13:31 16° E visible
06 Feb 9.4 21:06:13 10° WSW 21:16:23 56° S 21:17:57 54° SSE visible
06 Feb 10.6 23:18:15 10° W 23:22:24 24° WSW 23:22:24 24° WSW visible
07 Feb 9.1 19:51:37 10° WSW 20:00:00 54° S 20:06:48 31° ESE visible
07 Feb 9.7 22:02:41 10° W 22:11:14 46° SW 22:11:14 46° SW visible
08 Feb 9.0 18:37:26 10° SW 18:44:13 46° SSE 18:55:39 11° E visible
08 Feb 9.3 20:47:44 10° WSW 20:57:00 53° S 21:00:06 46° SSE visible
08 Feb 10.4 22:59:37 10° W 23:04:32 26° WSW 23:04:32 26° WSW visible
09 Feb 9.1 19:33:12 10° WSW 19:40:50 52° S 19:48:58 24° ESE visible
09 Feb 9.7 21:44:10 10° W 21:53:26 44° SSW 21:53:26 44° SSW visible
